Weather History for Denton, TX

Change the Weather History Date:

Saturday, May 10, 2014

  Actual Average Record
Temperature  
Mean Temperature 74 °F -  
Max Temperature 86 °F 80 °F 93 °F (2008)
Min Temperature 63 °F 57 °F 45 °F (1997)
Cooling Degree Days 10    
Growing Degree Days 24 (Base 50)    
Moisture  
Dew Point 63 °F    
Average Humidity 67    
Maximum Humidity 90    
Minimum Humidity 46    
Precipitation  
Precipitation 0.00 in - - ()
Sea Level Pressure  
Sea Level Pressure 29.80 in    
Wind  
Wind Speed 12 mph (SSE)    
Max Wind Speed 23 mph    
Max Gust Speed 30 mph    
Visibility 10 miles    
Events      
Averages and records for this station are not official NWS values.
T = Trace of Precipitation, MM = Missing Value Source: NWS Daily Summary

Daily Weather History Graph

Daily Weather History Graph

Search for Another Location

Airport:

Trip Planner

Search our weather history database for the weather conditions in past years. The results will help you decide how hot, cold, wet, or windy it might be!

Date:

Astronomy

May. 10, 2014 Rise Set
Actual Time 6:32 AM CDT 8:18 PM CDT
Civil Twilight 6:05 AM CDT 8:45 PM CDT
Nautical Twilight 5:33 AM CDT 9:17 PM CDT
Astronomical Twilight 4:58 AM CDT 9:52 PM CDT
Moon 4:27 PM CDT (5/10) 3:53 AM CDT (5/10)
Length of Visible Light 14h 39m
Length of Day
13h 45m
Waxing Gibbous, 82% of the Moon is Illuminated
May 10
Waxing Gibbous
May 14
Full
May 21
Last Quarter
May 28
New
Jun 5
First Quarter

Hourly Weather History & Observations

Time (CDT) Temp. Heat Index Dew Point Humidity Pressure Visibility Wind Dir Wind Speed Gust Speed Precip Events Conditions
12:53 AM 66.9 °F - 61.0 °F 81% 29.85 in 10.0 mi SSE 6.9 mph - N/A   Clear
1:53 AM 66.9 °F - 61.0 °F 81% 29.83 in 10.0 mi SSE 8.1 mph - N/A   Clear
2:53 AM 64.9 °F - 60.1 °F 84% 29.81 in 10.0 mi SSE 5.8 mph - N/A   Clear
3:53 AM 63.0 °F - 60.1 °F 90% 29.81 in 10.0 mi SE 6.9 mph - N/A   Clear
4:53 AM 64.0 °F - 60.1 °F 87% 29.81 in 10.0 mi SE 9.2 mph - N/A   Clear
6:53 AM 64.0 °F - 60.1 °F 87% 29.86 in 10.0 mi SSE 11.5 mph - N/A   Clear
7:53 AM 66.0 °F - 61.0 °F 84% 29.87 in 10.0 mi South 12.7 mph - N/A   Clear
8:53 AM 70.0 °F - 61.0 °F 73% 29.88 in 10.0 mi South 18.4 mph - N/A   Clear
9:53 AM 73.9 °F - 60.1 °F 62% 29.88 in 10.0 mi South 16.1 mph 27.6 mph N/A   Clear
10:53 AM 78.1 °F - 60.1 °F 54% 29.87 in 10.0 mi South 17.3 mph 26.5 mph N/A   Clear
11:53 AM 81.0 °F 81.9 °F 62.1 °F 52% 29.85 in 10.0 mi South 17.3 mph 26.5 mph N/A   Clear
12:53 PM 82.0 °F 83.1 °F 63.0 °F 52% 29.83 in 10.0 mi SSE 18.4 mph - N/A   Clear
1:53 PM 84.9 °F 85.4 °F 62.1 °F 46% 29.80 in 10.0 mi South 17.3 mph 24.2 mph N/A   Clear
2:53 PM 86.0 °F 86.8 °F 63.0 °F 46% 29.78 in 10.0 mi SSE 19.6 mph 25.3 mph N/A   Clear
4:53 PM 86.0 °F 87.3 °F 64.0 °F 48% 29.73 in 10.0 mi SSE 19.6 mph 27.6 mph N/A   Clear
5:53 PM 86.0 °F 87.6 °F 64.9 °F 49% 29.73 in 10.0 mi South 23.0 mph 28.8 mph N/A   Clear
6:53 PM 82.9 °F 85.0 °F 66.0 °F 56% 29.72 in 10.0 mi SSE 23.0 mph 29.9 mph N/A   Clear
7:53 PM 81.0 °F 83.3 °F 66.9 °F 62% 29.74 in 10.0 mi SSE 16.1 mph - N/A   Partly Cloudy
8:53 PM 79.0 °F - 66.9 °F 66% 29.75 in 10.0 mi SSE 17.3 mph - N/A   Clear
10:53 PM 77.0 °F - 66.9 °F 71% 29.75 in 10.0 mi SSE 11.5 mph - N/A   Clear
11:53 PM 77.0 °F - 66.9 °F 71% 29.75 in 10.0 mi SSE 17.3 mph 25.3 mph N/A   Clear